Broomfield, CO

6:17 AM MST on February 23, 2018 (GMT -0700)
Jeffco

Weather History for KBJC - October, 2014

Change the Weather History Date:

Wednesday, October 29, 2014

  Actual Average Record
Temperature  
Mean Temperature 52 °F -  
Max Temperature 69 °F 53 °F 80 °F (2003)
Min Temperature 35 °F 34 °F 10 °F (1991)
Degree Days  
Heating Degree Days 13    
Growing Degree Days 2 (Base 50)    
Moisture  
Dew Point 22 °F    
Average Humidity 41    
Maximum Humidity 70    
Minimum Humidity 15    
Precipitation  
Precipitation 0.00 in - - ()
Sea Level Pressure  
Sea Level Pressure 30.17 in    
Wind  
Wind Speed 6 mph (West)    
Max Wind Speed 26 mph    
Max Gust Speed 34 mph    
Visibility 10 miles    
Events      
Averages and records for this station are not official NWS values.
T = Trace of Precipitation, MM = Missing Value Source: NWS Daily Summary

Daily Weather History Graph

Daily Weather History Graph

Search for Another Location

Airport or City:

Trip Planner

Search our weather history database for the weather conditions in past years. The results will help you decide how hot, cold, wet, or windy it might be!

Date:

Astronomy

Oct. 29, 2014 Rise Set
Actual Time 7:26 AM MDT 6:01 PM MDT
Civil Twilight 6:58 AM MDT 6:29 PM MDT
Nautical Twilight 6:26 AM MDT 7:01 PM MDT
Astronomical Twilight 5:54 AM MDT 7:32 PM MDT
Moon 12:46 PM MDT (10/29) 11:14 PM MDT (10/29)
Length of Visible Light 11h 31m
Length of Day
10h 35m
Waxing Crescent, 35% of the Moon is Illuminated
Oct 29
Waxing Crescent
Oct 30
First Quarter
Nov 6
Full
Nov 14
Last Quarter
Nov 22
New

Hourly Weather History & Observations

Time (MDT) Temp. Windchill Dew Point Humidity Pressure Visibility Wind Dir Wind Speed Gust Speed Precip Events Conditions
12:15 AM 41.0 °F 39.0 °F 23.0 °F 49% 30.19 in 10.0 mi SSE 3.5 mph - N/A   Clear
12:35 AM 41.0 °F 39.0 °F 23.0 °F 49% 30.19 in 10.0 mi West 3.5 mph - N/A   Clear
12:55 AM 41.0 °F 37.1 °F 23.0 °F 49% 30.19 in 10.0 mi NW 5.8 mph - N/A   Clear
1:15 AM 39.2 °F - 23.0 °F 52% 30.19 in 10.0 mi Calm Calm - N/A   Clear
1:34 AM 42.8 °F - 21.2 °F 42% 30.19 in 10.0 mi Calm Calm - N/A   Clear
1:55 AM 41.0 °F 36.4 °F 23.0 °F 49% 30.19 in 10.0 mi NW 6.9 mph - N/A   Clear
2:15 AM 39.2 °F 32.5 °F 23.0 °F 52% 30.19 in 10.0 mi NW 10.4 mph - N/A   Clear
2:35 AM 41.0 °F 34.7 °F 23.0 °F 49% 30.18 in 10.0 mi NNW 10.4 mph - N/A   Clear
2:55 AM 39.2 °F 37.0 °F 23.0 °F 52% 30.19 in 10.0 mi NE 3.5 mph - N/A   Clear
3:15 AM 35.6 °F 29.9 °F 26.6 °F 70% 30.19 in 10.0 mi North 6.9 mph - N/A   Clear
3:35 AM 37.4 °F - 26.6 °F 65% 30.19 in 10.0 mi Calm Calm - N/A   Clear
3:54 AM 35.6 °F - 26.6 °F 70% 30.19 in 10.0 mi Calm Calm - N/A   Clear
4:15 AM 35.6 °F 30.7 °F 24.8 °F 65% 30.19 in 10.0 mi WNW 5.8 mph - N/A   Clear
4:35 AM 35.6 °F 31.7 °F 24.8 °F 65% 30.19 in 10.0 mi West 4.6 mph - N/A   Clear
4:54 AM 35.6 °F 31.7 °F 24.8 °F 65% 30.19 in 10.0 mi West 4.6 mph - N/A   Clear
5:15 AM 37.4 °F 34.9 °F 23.0 °F 56% 30.18 in 10.0 mi West 3.5 mph - N/A   Clear
5:35 AM 35.6 °F 32.8 °F 24.8 °F 65% 30.19 in 10.0 mi West 3.5 mph - N/A   Clear
5:52 AM 37.4 °F 33.8 °F 23.0 °F 56% 30.18 in 20.0 mi WSW 4.6 mph - N/A   Partly Cloudy
5:55 AM 37.4 °F 33.8 °F 23.0 °F 56% 30.18 in 10.0 mi West 4.6 mph - N/A   Clear
6:50 AM 39.2 °F 35.9 °F 23.0 °F 52% 30.18 in 50.0 mi South 4.6 mph - N/A   Partly Cloudy
7:55 AM 41.0 °F - 24.8 °F 53% 30.18 in 70.0 mi Calm Calm - N/A   Partly Cloudy
8:47 AM 46.4 °F - 24.8 °F 43% 30.20 in 70.0 mi Calm Calm - N/A   Partly Cloudy
8:55 AM 41.0 °F - 24.8 °F 53% 30.18 in 70.0 mi Calm Calm - N/A   Partly Cloudy
9:55 AM 57.2 °F - 23.0 °F 27% 30.18 in 70.0 mi SSW 4.6 mph - N/A   Partly Cloudy
10:47 AM 60.8 °F - 21.2 °F 22% 30.18 in 70.0 mi SSW 5.8 mph - N/A   Scattered Clouds
11:47 AM 66.2 °F - 19.4 °F 17% 30.18 in 70.0 mi WSW 6.9 mph 18.4 mph N/A   Scattered Clouds
12:16 PM 48.2 °F - 19.4 °F 32% 30.13 in 70.0 mi WSW 6.9 mph 34.5 mph N/A   Scattered Clouds
12:50 PM 66.2 °F - 19.4 °F 17% 30.13 in 70.0 mi WSW 26.5 mph 34.5 mph N/A   Scattered Clouds
1:48 PM 69.8 °F - 19.4 °F 15% 30.11 in 70.0 mi West 23.0 mph 34.5 mph N/A   Scattered Clouds
2:55 PM 69.8 °F - 19.4 °F 15% 30.11 in 70.0 mi West 26.5 mph 32.2 mph N/A   Partly Cloudy
3:50 PM 68.0 °F - 17.6 °F 15% 30.11 in 70.0 mi West 23.0 mph 33.4 mph N/A   Partly Cloudy
4:45 PM 66.2 °F - 19.4 °F 17% 30.12 in 70.0 mi WNW 13.8 mph 23.0 mph N/A   Scattered Clouds
5:47 PM 64.4 °F - 19.4 °F 18% 30.12 in 60.0 mi West 17.3 mph - N/A   Scattered Clouds
6:46 PM 57.2 °F - 19.4 °F 23% 30.14 in 30.0 mi West 5.8 mph - N/A   Scattered Clouds
7:47 PM 59.0 °F - 19.4 °F 22% 30.16 in 30.0 mi WNW 11.5 mph - N/A   Scattered Clouds
8:45 PM 60.8 °F - 15.8 °F 17% 30.17 in 30.0 mi WNW 6.9 mph - N/A   Partly Cloudy
9:45 PM 59.0 °F - 17.6 °F 20% 30.19 in 30.0 mi Calm Calm - N/A   Partly Cloudy
11:15 PM 55.4 °F - 19.4 °F 25% 30.20 in 10.0 mi West 13.8 mph - N/A   Clear
11:35 PM 57.2 °F - 19.4 °F 23% 30.22 in 10.0 mi WNW 11.5 mph - N/A   Clear
11:54 PM 55.4 °F - 19.4 °F 25% 30.22 in 10.0 mi SW 8.1 mph - N/A   Clear